Content
SEND FEEDBACK

Daily
Averages
Monthly
Summary
United Kingdom

FAIRFORD, ENGLAND


Home > Europe > United Kingdom > England
Elevation: 284 feet     Latitude: 51 40N     Longitude: 001 47W

WEATHER
 
SELECT A DAY
Number of Records: 169,344;   Date Range: 7/16/96 - 9/19/14
 
SHARE

PRINT THIS DATA

[ ← Previous Day ]
WEATHER ALMANAC - JANUARY 31, 2013
[ Next Day → ]
[ °C ]   °F
Weather ElementAverageHighLow
Temperature45.9 °F50.5 °F (12:58 pm)41 °F (8:57 am)
Dewpoint43.9 °F46.4 °F (4:56 am)39.2 °F (8:55 am)
Humidity92.9 %100 % (5:05 am)70 % (2:58 pm)
Barometer29.82 in29.96 in (1:58 am)29.75 in (6:45 am)
Wind Speed20.4 mph34.5 mph (8:49 am)
Wind Gust42.6 mph (8:48 am)
Weather ElementAverage
Visibility5.9 mi
Wind DirectionWSW (251 °)

Weather ElementTotal
Precipitation0.21 in
Heating Degree Days19.3 (Base 65)
Averaged from 108 records on January 31, 2013
WEATHER CONDITIONS BREAKOUT
WIND DIRECTION BREAKOUT
WEATHER BY HOUR - JANUARY 31, 2013
[ °C ]   °F
Local TimeTemperatureDewpointHumidityBarometerVisibilityWind DirectionWind SpeedGust SpeedPrecipitationEventsConditions
1:58 AM42.4 °F40.5 °F93 %29.96 in6.2 miSW (220°)18.4 mphPartly Cloudy
2:58 AM44.4 °F43.2 °F95 %29.89 in6.2 miSW (220°)13.8 mphPartly Cloudy
4:33 AM48.2 °F44.6 °F87 %29.77 in6.2 miSSW (210°)23.0 mph36.8 mphRainLight Rain
4:44 AM48.2 °F44.6 °F87 %29.77 in6.2 miSSW (210°)21.9 mph35.7 mphRainLight Rain
4:46 AM48.2 °F44.6 °F87 %29.77 in6.2 miSSW (210°)27.6 mph35.7 mphRainLight Rain
4:51 AM48.2 °F44.6 °F87 %29.77 in6.2 miSSW (210°)23.0 mph35.7 mphRainLight Rain
4:56 AM48.2 °F46.4 °F93 %29.78 in6.2 miSW (220°)23.0 mph36.8 mphRainLight Rain
4:58 AM48.2 °F46.4 °F93 %29.80 in6.2 miSW (220°)21.9 mph36.8 mph0.00 inRainLight Rain
5:00 AM48.2 °F46.4 °F93 %29.78 in6.2 miSSW (210°)20.7 mph36.8 mphRainLight Rain
5:04 AM48.2 °F46.4 °F93 %29.78 in6.2 miSSW (210°)20.7 mph31.1 mphRainLight Rain
5:05 AM46.4 °F46.4 °F100 %29.78 in6.2 miSSW (210°)20.7 mph28.8 mphRainLight Rain
5:07 AM46.4 °F46.4 °F100 %29.78 in6.2 miSSW (210°)21.9 mph27.6 mphRainLight Rain
5:13 AM46.4 °F46.4 °F100 %29.78 in6.2 miSSW (210°)21.9 mph27.6 mphRainLight Rain
5:14 AM46.4 °F46.4 °F100 %29.78 in6.2 miSSW (210°)19.6 mph27.6 mphRainLight Rain
5:21 AM46.4 °F46.4 °F100 %29.78 in6.2 miWSW (250°)19.6 mph27.6 mphRainLight Rain
5:29 AM46.4 °F46.4 °F100 %29.77 in6.2 miWSW (240°)23.0 mph28.8 mphRainLight Rain
5:32 AM46.4 °F46.4 °F100 %29.77 in6.2 miWSW (250°)23.0 mph29.9 mphRainLight Rain
5:36 AM46.4 °F46.4 °F100 %29.77 in6.2 miWSW (250°)25.3 mph34.5 mphRainLight Rain
5:47 AM46.4 °F46.4 °F100 %29.76 in6.2 miWSW (250°)26.5 mph32.2 mphRainLight Rain
5:58 AM46.6 °F46.2 °F99 %29.78 in6.2 miWSW (240°)19.6 mph32.2 mph0.07 inRainLight Rain
6:05 AM46.4 °F46.4 °F100 %29.76 in6.2 miWSW (250°)18.4 mphRainLight Rain
6:08 AM48.2 °F46.4 °F93 %29.76 in6.2 miWest (260°)19.6 mphOvercast
6:13 AM48.2 °F46.4 °F93 %29.77 in6.2 miWest (270°)13.8 mph24.2 mphOvercast
6:17 AM48.2 °F46.4 °F93 %29.76 in6.2 miWSW (250°)16.1 mphOvercast
6:18 AM48.2 °F46.4 °F93 %29.76 in6.2 miWSW (250°)17.3 mphOvercast
6:20 AM48.2 °F46.4 °F93 %29.76 in6.2 miWSW (250°)17.3 mphOvercast
6:24 AM48.2 °F46.4 °F93 %29.76 in6.2 miWSW (240°)18.4 mphOvercast
6:29 AM48.2 °F46.4 °F93 %29.76 in6.2 miWSW (240°)23.0 mph26.5 mphOvercast
6:33 AM48.2 °F46.4 °F93 %29.76 in6.2 miWSW (240°)24.2 mph29.9 mphRainLight Rain
6:45 AM48.2 °F46.4 °F93 %29.75 in6.2 miWSW (250°)23.0 mph29.9 mphMostly Cloudy
6:58 AM47.8 °F45.3 °F91 %29.78 in6.2 miWSW (240°)25.3 mph32.2 mph0.00 inMostly Cloudy
7:09 AM48.2 °F44.6 °F87 %29.76 in6.2 miWSW (250°)26.5 mph34.5 mphMostly Cloudy
7:15 AM48.2 °F44.6 °F87 %29.76 in6.2 miWSW (250°)24.2 mph35.7 mphMostly Cloudy
7:19 AM48.2 °F44.6 °F87 %29.76 in6.2 miWSW (250°)26.5 mph35.7 mphRainLight Rain
7:29 AM48.2 °F44.6 °F87 %29.76 in6.2 miWest (260°)24.2 mph36.8 mphMostly Cloudy
7:43 AM48.2 °F44.6 °F87 %29.76 in6.2 miWest (260°)26.5 mph34.5 mphScattered Clouds
7:58 AM46.9 °F43.3 °F87 %29.79 in6.2 miWSW (250°)21.9 mph29.9 mph0.00 inPartly Cloudy
8:43 AM46.4 °F42.8 °F87 %29.79 in6.2 miWest (280°)24.2 mph36.8 mphRainLight Rain
8:44 AM46.4 °F42.8 °F87 %29.80 in6.2 miWNW (290°)26.5 mph36.8 mphRainLight Rain
8:48 AM46.4 °F41.0 °F81 %29.80 in5.0 miWNW (290°)31.1 mph42.6 mphRainLight Rain
8:49 AM44.6 °F41.0 °F87 %29.81 inWNW (290°)34.5 mph42.6 mphRainLight Rain
8:50 AM44.6 °F41.0 °F87 %29.81 in2.5 miWest (280°)32.2 mph42.6 mphRainRain
8:52 AM42.8 °F41.0 °F93 %29.80 inWest (270°)33.4 mph42.6 mphRainHeavy Rain
8:54 AM42.8 °F41.0 °F93 %29.80 in1.7 miWest (270°)34.5 mph42.6 mphRainHeavy Rain
8:55 AM42.8 °F39.2 °F87 %29.80 in1.5 miWest (270°)31.1 mph42.6 mphRainHeavy Rain
8:57 AM41.0 °F39.2 °F93 %29.80 in1.7 miWest (270°)28.8 mph42.6 mphRainLight Rain
8:58 AM41.9 °F40.1 °F93 %29.82 in1.7 miWest (270°)29.9 mph42.6 mph0.08 inRainLight Rain
9:00 AM41.0 °F41.0 °F100 %29.79 inWest (270°)23.0 mph42.6 mphRainLight Rain
9:01 AM41.0 °F41.0 °F100 %29.79 in2.5 miWest (270°)23.0 mph42.6 mphRainLight Rain
9:03 AM41.0 °F41.0 °F100 %29.79 in3.7 miWest (270°)25.3 mph42.6 mphRainLight Rain
9:09 AM41.0 °F41.0 °F100 %29.79 in6.2 miWest (260°)20.7 mph29.9 mphRainLight Rain
9:10 AM41.0 °F41.0 °F100 %29.79 in6.2 miWest (260°)20.7 mph29.9 mphScattered Clouds
9:58 AM45.7 °F43.3 °F92 %29.82 in6.2 miWSW (250°)20.7 mph33.4 mph0.00 inClear
10:58 AM47.5 °F42.6 °F83 %29.84 in6.2 miWest (260°)25.3 mph32.2 mphClear
12:58 PM50.5 °F43.3 °F76 %29.87 in6.2 miWest (260°)23.0 mph28.8 mphMostly Cloudy
1:05 PM50.0 °F42.8 °F76 %29.85 in6.2 miWest (260°)25.3 mph32.2 mphScattered Clouds
2:58 PM49.8 °F40.5 °F70 %29.87 in6.2 miWest (260°)23.0 mph31.1 mphClear
4:58 PM46.9 °F42.1 °F83 %29.89 in6.2 miWSW (250°)23.0 mph29.9 mphPartly Cloudy
5:58 PM46.6 °F42.4 °F85 %29.89 in6.2 miWSW (250°)25.3 mph31.1 mphPartly Cloudy
6:43 PM46.4 °F42.8 °F87 %29.88 in6.2 miWSW (250°)19.6 mph27.6 mphMostly Cloudy
6:45 PM46.4 °F42.8 °F87 %29.89 in6.2 miWSW (250°)18.4 mph27.6 mphScattered Clouds
6:58 PM46.2 °F42.8 °F88 %29.90 in6.2 miWSW (250°)23.0 mph28.8 mphScattered Clouds
7:37 PM46.4 °F42.8 °F87 %29.88 in6.2 miWSW (250°)20.7 mph27.6 mphMostly Cloudy
7:43 PM46.4 °F42.8 °F87 %29.88 in6.2 miWSW (250°)21.9 mph27.6 mphMostly Cloudy
7:58 PM46.6 °F43.3 °F88 %29.90 in6.2 miWest (260°)21.9 mph29.9 mphMostly Cloudy
8:02 PM46.4 °F42.8 °F87 %29.88 in6.2 miWSW (250°)18.4 mphRainLight Rain
8:05 PM46.4 °F42.8 °F87 %29.87 in6.2 miWest (260°)23.0 mph27.6 mphRainLight Rain
8:16 PM46.4 °F44.6 °F93 %29.88 in6.2 miWest (260°)18.4 mph25.3 mphMostly Cloudy
8:20 PM46.4 °F44.6 °F93 %29.87 in6.2 miWest (260°)18.4 mph25.3 mphMostly Cloudy
8:30 PM46.4 °F42.8 °F87 %29.88 in6.2 miWSW (250°)19.6 mphMostly Cloudy
8:33 PM46.4 °F44.6 °F93 %29.87 in6.2 miWSW (250°)19.6 mph25.3 mphMostly Cloudy
8:37 PM46.4 °F44.6 °F93 %29.88 in6.2 miWSW (250°)18.4 mphRainLight Rain
8:49 PM46.4 °F44.6 °F93 %29.88 in6.2 miWSW (250°)18.4 mph27.6 mphRainLight Rain
8:53 PM46.4 °F44.6 °F93 %29.88 in6.2 miWest (270°)20.7 mphRainRain
8:58 PM45.5 °F44.2 °F95 %29.90 in6.2 miWest (270°)19.6 mph0.03 inRainLight Rain
9:00 PM44.6 °F44.6 °F100 %29.88 in6.2 miWest (280°)18.4 mphRainLight Rain
9:01 PM44.6 °F44.6 °F100 %29.88 in6.2 miWest (280°)17.3 mphRainLight Rain
9:13 PM44.6 °F44.6 °F100 %29.87 in6.2 miWest (260°)15.0 mphRainLight Rain
9:14 PM44.6 °F44.6 °F100 %29.87 in6.2 miWest (260°)15.0 mphRainLight Rain
9:16 PM44.6 °F44.6 °F100 %29.87 in6.2 miWest (260°)15.0 mphRainLight Rain
9:18 PM44.6 °F44.6 °F100 %29.87 in6.2 miWSW (250°)16.1 mphRainLight Rain
9:19 PM46.4 °F44.6 °F93 %29.87 in6.2 miWSW (250°)18.4 mph24.2 mphOvercast
9:47 PM46.4 °F44.6 °F93 %29.86 in6.2 miWSW (250°)20.7 mphMostly Cloudy
9:49 PM46.4 °F44.6 °F93 %29.86 in6.2 miWSW (250°)19.6 mphScattered Clouds
10:01 PM46.4 °F44.6 °F93 %29.86 in6.2 miWSW (240°)19.6 mph25.3 mphMostly Cloudy
10:04 PM46.4 °F44.6 °F93 %29.86 in6.2 miWSW (250°)17.3 mph25.3 mphMostly Cloudy
10:05 PM46.4 °F44.6 °F93 %29.86 in6.2 miWSW (250°)18.4 mph25.3 mphRainLight Rain
10:07 PM46.4 °F44.6 °F93 %29.86 in6.2 miWest (260°)23.0 mph29.9 mphRainLight Rain
10:16 PM44.6 °F42.8 °F93 %29.85 in6.2 miWest (260°)23.0 mph34.5 mphRainLight Rain
10:19 PM44.6 °F42.8 °F93 %29.85 in6.2 miWest (260°)19.6 mph29.9 mphRainLight Rain
10:25 PM42.8 °F41.0 °F93 %29.85 in6.2 miWest (260°)18.4 mph29.9 mphRainLight Rain
10:34 PM44.6 °F42.8 °F93 %29.85 in6.2 miWSW (250°)12.7 mphMostly Cloudy
10:41 PM42.8 °F42.8 °F100 %29.85 in6.2 miSW (230°)8.1 mphMostly Cloudy
10:43 PM42.8 °F42.8 °F100 %29.85 in6.2 miSW (230°)9.2 mphScattered Clouds
10:58 PM43.9 °F42.8 °F96 %29.87 in6.2 miWSW (250°)16.1 mph0.01 inPartly Cloudy
11:21 PM44.6 °F42.8 °F93 %29.84 in6.2 miWSW (250°)15.0 mphMostly Cloudy
11:22 PM44.6 °F42.8 °F93 %29.84 in6.2 miWSW (250°)13.8 mphMostly Cloudy
11:34 PM44.6 °F42.8 °F93 %29.84 in6.2 miWSW (250°)10.4 mphOvercast
11:35 PM44.6 °F42.8 °F93 %29.84 in6.2 miWSW (250°)10.4 mphOvercast
11:36 PM44.6 °F44.6 °F100 %29.84 in6.2 miWSW (250°)10.4 mphRainLight Rain
11:39 PM44.6 °F44.6 °F100 %29.83 in6.2 miWSW (250°)10.4 mphRainLight Rain
11:40 PM44.6 °F44.6 °F100 %29.83 in6.2 miWSW (250°)10.4 mphRainLight Rain
11:42 PM44.6 °F44.6 °F100 %29.83 in6.2 miWSW (250°)8.1 mphRainLight Rain
11:43 PM44.6 °F44.6 °F100 %29.83 in6.2 miWSW (250°)9.2 mphRainLight Rain
11:47 PM44.6 °F44.6 °F100 %29.83 in6.2 miWest (260°)8.1 mphOvercast
11:51 PM44.6 °F44.6 °F100 %29.83 in6.2 miWest (280°)9.2 mphOvercast
11:53 PM44.6 °F44.6 °F100 %29.84 in6.2 miWest (280°)13.8 mph25.3 mphRainLight Rain
11:58 PM44.1 °F43.7 °F99 %29.86 in6.2 miWest (260°)21.9 mph27.6 mph0.02 inRainLight Rain
Hourly data recorded from EGVA, located miles away from Fairford, England







STORIES FROM OUR PARTNERS